• En España
  • Lista de países
  • Para 7 días
  • Temperatura del agua
  • Mapa Satelital
  • El tiempo en el mapa
  • Informadores
  • user-avatar
    Iniciar sesión

    Tiempo cada hora Maloe Vyzhlyatnikovo

    Hoy, 22 Julio, Domingo

    Tiempo Temperatura Precipitaciones Viento Presión Humedad
    00:00 +20°C° 0 mm 1 mps 733 mmHg 96%
    01:00 +19°C° 0 mm 1 mps 733 mmHg 97%
    02:00 +19°C° 0 mm 1 mps 733 mmHg 97%
    03:00 +19°C° 0,1 mm 1 mps 733 mmHg 97%
    04:00 +19°C° 0,1 mm 1 mps 733 mmHg 97%
    05:00 +20°C° 0,1 mm 1 mps 734 mmHg 97%
    06:00 +20°C° 0,4 mm 2 mps 734 mmHg 95%
    07:00 +21°C° 0,4 mm 2 mps 734 mmHg 93%
    08:00 +23°C° 0,4 mm 2 mps 734 mmHg 92%
    09:00 +23°C° 1 mm 2 mps 734 mmHg 89%
    10:00 +24°C° 1 mm 3 mps 734 mmHg 87%
    11:00 +24°C° 1 mm 3 mps 734 mmHg 84%
    12:00 +24°C° 0,4 mm 3 mps 734 mmHg 84%
    13:00 +24°C° 0,4 mm 3 mps 734 mmHg 83%
    14:00 +22°C° 0,4 mm 3 mps 734 mmHg 83%
    15:00 +22°C° 0,1 mm 3 mps 734 mmHg 84%
    16:00 +21°C° 0,1 mm 3 mps 734 mmHg 85%
    17:00 +21°C° 0,1 mm 2 mps 734 mmHg 86%
    18:00 +20°C° 0 mm 2 mps 735 mmHg 88%
    19:00 +20°C° 0 mm 2 mps 735 mmHg 90%
    20:00 +19°C° 0 mm 2 mps 735 mmHg 92%
    21:00 +19°C° 0 mm 2 mps 735 mmHg 93%
    22:00 +19°C° 0 mm 2 mps 735 mmHg 93%
    23:00 +19°C° 0 mm 2 mps 735 mmHg 94%

    Mañana, 23 Julio, Lunes

    Tiempo Temperatura Precipitaciones Viento Presión Humedad
    00:00 +18°C° 0 mm 2 mps 735 mmHg 94%
    01:00 +18°C° 0 mm 2 mps 735 mmHg 94%
    02:00 +19°C° 0 mm 1 mps 735 mmHg 95%
    03:00 +18°C° 0 mm 2 mps 735 mmHg 94%
    04:00 +18°C° 0 mm 2 mps 735 mmHg 94%
    05:00 +18°C° 0 mm 2 mps 735 mmHg 94%
    06:00 +18°C° 0 mm 2 mps 735 mmHg 92%
    07:00 +19°C° 0 mm 2 mps 735 mmHg 91%
    08:00 +19°C° 0 mm 3 mps 736 mmHg 89%
    09:00 +20°C° 0,1 mm 3 mps 736 mmHg 84%
    10:00 +21°C° 0,1 mm 3 mps 736 mmHg 79%
    11:00 +22°C° 0,1 mm 3 mps 736 mmHg 73%
    12:00 +22°C° 0,1 mm 4 mps 736 mmHg 73%
    13:00 +22°C° 0,1 mm 4 mps 736 mmHg 72%
    14:00 +22°C° 0,1 mm 4 mps 736 mmHg 71%
    15:00 +22°C° 0 mm 4 mps 736 mmHg 71%
    16:00 +22°C° 0 mm 3 mps 736 mmHg 71%
    17:00 +22°C° 0 mm 3 mps 736 mmHg 72%
    18:00 +21°C° 0 mm 3 mps 736 mmHg 78%
    19:00 +19°C° 0 mm 2 mps 736 mmHg 83%
    20:00 +18°C° 0 mm 2 mps 736 mmHg 89%
    21:00 +17°C° 0 mm 2 mps 736 mmHg 92%
    22:00 +17°C° 0 mm 2 mps 736 mmHg 94%
    23:00 +16°C° 0 mm 2 mps 737 mmHg 97%

    Pasado mañana, 24 Julio, Martes

    Tiempo Temperatura Precipitaciones Viento Presión Humedad
    00:00 +16°C° 0 mm 2 mps 736 mmHg 97%
    01:00 +15°C° 0 mm 2 mps 736 mmHg 98%
    02:00 +15°C° 0 mm 2 mps 736 mmHg 98%
    03:00 +15°C° 0 mm 2 mps 736 mmHg 97%
    04:00 +15°C° 0 mm 2 mps 736 mmHg 96%
    05:00 +14°C° 0 mm 3 mps 736 mmHg 95%
    06:00 +16°C° 0 mm 3 mps 737 mmHg 92%
    07:00 +17°C° 0 mm 3 mps 737 mmHg 88%
    08:00 +18°C° 0 mm 3 mps 737 mmHg 85%
    09:00 +18°C° 0 mm 3 mps 737 mmHg 84%
    10:00 +19°C° 0 mm 3 mps 737 mmHg 83%
    11:00 +19°C° 0 mm 3 mps 737 mmHg 82%
    12:00 +20°C° 0 mm 3 mps 737 mmHg 81%
    13:00 +20°C° 0 mm 3 mps 737 mmHg 80%
    14:00 +21°C° 0 mm 3 mps 737 mmHg 78%
    15:00 +20°C° 0 mm 3 mps 737 mmHg 82%
    16:00 +20°C° 0 mm 3 mps 737 mmHg 85%
    17:00 +20°C° 0 mm 3 mps 737 mmHg 89%
    18:00 +19°C° 0 mm 3 mps 737 mmHg 90%
    19:00 +19°C° 0 mm 3 mps 737 mmHg 92%
    20:00 +19°C° 0 mm 3 mps 737 mmHg 93%
    21:00 +19°C° 0 mm 3 mps 737 mmHg 95%
    22:00 +19°C° 0 mm 3 mps 737 mmHg 96%
    23:00 +18°C° 0 mm 3 mps 737 mmHg 97%

    25 Julio, Miércoles

    Tiempo Temperatura Precipitaciones Viento Presión Humedad
    00:00 +18°C° 0 mm 3 mps 737 mmHg 98%
    01:00 +18°C° 0 mm 3 mps 737 mmHg 98%
    02:00 +18°C° 0 mm 3 mps 738 mmHg 98%
    03:00 +18°C° 0 mm 2 mps 738 mmHg 98%
    04:00 +18°C° 0 mm 2 mps 738 mmHg 97%
    05:00 +19°C° 0 mm 2 mps 738 mmHg 97%
    06:00 +20°C° 0 mm 3 mps 738 mmHg 92%
    07:00 +21°C° 0 mm 3 mps 739 mmHg 87%
    08:00 +22°C° 0 mm 3 mps 739 mmHg 82%
    09:00 +24°C° 0,3 mm 3 mps 739 mmHg 79%
    10:00 +24°C° 0,3 mm 3 mps 739 mmHg 77%
    11:00 +25°C° 0,3 mm 3 mps 739 mmHg 74%
    12:00 +26°C° 0,1 mm 3 mps 739 mmHg 65%
    13:00 +27°C° 0,1 mm 4 mps 739 mmHg 56%
    14:00 +28°C° 0,1 mm 5 mps 739 mmHg 46%
    15:00 +28°C° 0 mm 4 mps 739 mmHg 49%
    16:00 +27°C° 0 mm 4 mps 739 mmHg 52%
    17:00 +26°C° 0 mm 3 mps 739 mmHg 55%
    18:00 +25°C° 0 mm 3 mps 739 mmHg 58%
    19:00 +22°C° 0 mm 3 mps 739 mmHg 62%
    20:00 +21°C° 0 mm 3 mps 739 mmHg 66%
    21:00 +20°C° 0 mm 3 mps 739 mmHg 66%
    22:00 +20°C° 0 mm 3 mps 739 mmHg 66%
    23:00 +19°C° 0 mm 3 mps 739 mmHg 66%

    26 Julio, Jueves

    Tiempo Temperatura Precipitaciones Viento Presión Humedad
    00:00 +19°C° 0 mm 3 mps 739 mmHg 69%
    01:00 +18°C° 0 mm 3 mps 740 mmHg 73%
    02:00 +18°C° 0 mm 3 mps 740 mmHg 76%
    03:00 +18°C° 0 mm 3 mps 740 mmHg 79%
    04:00 +17°C° 0 mm 3 mps 740 mmHg 81%
    05:00 +17°C° 0 mm 3 mps 741 mmHg 84%
    06:00 +19°C° 0 mm 3 mps 741 mmHg 79%
    07:00 +21°C° 0 mm 3 mps 741 mmHg 74%
    08:00 +24°C° 0 mm 3 mps 741 mmHg 68%
    09:00 +25°C° 0 mm 4 mps 741 mmHg 61%
    10:00 +27°C° 0 mm 4 mps 742 mmHg 54%
    11:00 +29°C° 0 mm 4 mps 742 mmHg 47%
    12:00 +29°C° 0 mm 4 mps 742 mmHg 45%
    13:00 +30°C° 0 mm 4 mps 741 mmHg 44%
    14:00 +30°C° 0 mm 4 mps 741 mmHg 42%
    15:00 +30°C° 0 mm 4 mps 741 mmHg 47%
    16:00 +29°C° 0 mm 3 mps 741 mmHg 51%
    17:00 +29°C° 0 mm 3 mps 741 mmHg 55%
    18:00 +27°C° 0 mm 3 mps 741 mmHg 63%
    19:00 +25°C° 0 mm 3 mps 742 mmHg 71%
    20:00 +22°C° 0 mm 3 mps 742 mmHg 78%
    21:00 +21°C° 0 mm 2 mps 742 mmHg 83%
    22:00 +20°C° 0 mm 2 mps 742 mmHg 87%
    23:00 +19°C° 0 mm 2 mps 742 mmHg 91%

    27 Julio, Viernes

    Tiempo Temperatura Precipitaciones Viento Presión Humedad
    00:00 +19°C° 0 mm 2 mps 742 mmHg 93%
    01:00 +18°C° 0 mm 2 mps 742 mmHg 94%
    02:00 +18°C° 0 mm 2 mps 743 mmHg 95%
    03:00 +18°C° 0 mm 2 mps 743 mmHg 94%
    04:00 +18°C° 0 mm 2 mps 743 mmHg 92%
    05:00 +19°C° 0 mm 3 mps 743 mmHg 90%
    06:00 +20°C° 0 mm 3 mps 743 mmHg 84%
    07:00 +22°C° 0 mm 3 mps 743 mmHg 78%
    08:00 +25°C° 0 mm 3 mps 744 mmHg 72%
    09:00 +26°C° 0,1 mm 3 mps 744 mmHg 66%
    10:00 +28°C° 0,1 mm 4 mps 744 mmHg 60%
    11:00 +29°C° 0,1 mm 4 mps 744 mmHg 54%
    12:00 +29°C° 0,4 mm 4 mps 744 mmHg 56%
    13:00 +29°C° 0,4 mm 4 mps 744 mmHg 58%
    14:00 +28°C° 0,4 mm 4 mps 744 mmHg 60%
    15:00 +28°C° 0,2 mm 3 mps 744 mmHg 64%
    16:00 +27°C° 0,2 mm 3 mps 744 mmHg 67%
    17:00 +27°C° 0,2 mm 2 mps 744 mmHg 71%
    18:00 +26°C° 0,1 mm 2 mps 744 mmHg 76%
    19:00 +24°C° 0,1 mm 2 mps 744 mmHg 81%
    20:00 +23°C° 0,1 mm 2 mps 744 mmHg 87%
    21:00 +21°C° 0 mm 2 mps 744 mmHg 88%
    22:00 +21°C° 0 mm 2 mps 744 mmHg 90%
    23:00 +20°C° 0 mm 2 mps 744 mmHg 92%
    Mostrar más